Location: Grasslands National Park East Block
(49.0708°N, 106.5295°W)
Time: 11:22:03
(UTC-06:00)

Vanguard 1 Rocket - Pass Details

Date: 30 September 2019
Orbit: 650 x 4226 km, 34.3° (Epoch: 13 October)

Event Time Altitude Azimuth Distance (km) Brightness Sun altitude
Rises 18:28:41 0° 255° (WSW) 8,455 14.9 2.2°
Reaches altitude 10° 18:34:54 10° 251° (WSW) 7,416 14.0 1.2°
Maximum altitude 18:58:10 51° 186° (S) 3,917 10.7 -2.6°
Drops below altitude 10° 19:12:37 10° 116° (ESE) 4,832 10.5 -5.0°
Enters shadow 19:14:55 - 112° (ESE) 5,291 10.7 -5.4°
Sets 19:15:41 0° 111° (ESE) 5,455 - -5.5°
